User: anonymous   Login
Location: Bremen
(53.0793°N, 8.8017°E)
Time: 07:30:22
(UTC+01:00)
Language:

Transit 2A Rocket - Orbit

View from above orbital plane
View from above orbital plane
View from above satellite
View from above satellite

Ground track
Ground track

The orbit data is extracted from the following two-line orbital elements,

1 00047U 60007C   22333.28418706  .00000565  00000-0  15007-3 0  9995
2 00047  66.6656 281.8846 0225729   6.6266 353.7734 14.42491744263719
Epoch (UTC): 29 November 2022 06:49:13
Eccentricity: 0.0225729
inclination: 66.6656°
perigee height: 589 km
apogee height: 911 km
right ascension of ascending node: 281.8846°
argument of perigee: 6.6266°
revolutions per day: 14.42491744
mean anomaly at epoch: 353.7734°
orbit number at epoch: 26371

The dashed part of the orbit path shows where the satellite is in the earth's shadow,  

DLR